Regional Weather Roundup
Issued by NWS

Home | Current Version | Previous Version | Graphics & Text | Print | Product List | Glossary Off
Versions: 1 2 3 4 5 6 7 8 9 10 11 12 13 14 15 16 17 18 19 20 21 22 23 24 25 26 27 28 29 30 31 32 33 34 35 36 37 38 39 40 41 42 43 44 45 46 47 48 49 50

574
ASUS43 KDMX 241906
RWRIA

WEATHER ROUNDUP FOR IOWA
NATIONAL WEATHER SERVICE DES MOINES IA
200 PM CDT SAT JUN 24 2017

NOTE: "FAIR" INDICATES FEW OR NO CLOUDS BELOW 12,000 FEET WITH NO
SIGNIFICANT WEATHER AND/OR OBSTRUCTIONS TO VISIBILITY.

* - THESE STATIONS ARE NOT NWS STATIONS...THUS NOT UNDER NWS
QUALITY CONTROL.  THEY ALSO DO NOT REPORT WEATHER SUCH
AS PRECIPITATION OR FOG.

IAZ001>003-012>014-020>022-031>034-043>046-242000-
   NORTHWEST IOWA

CITY           SKY/WX    TMP DP  RH WIND       PRES   REMARKS
CARROLL *      PTSUNNY   73  39  29 W15G23    30.12F
CHEROKEE *     CLOUDY    72  39  30 W12G31    30.10F
DENISON *      MOSUNNY   75  37  25 W20G29    30.15S
LE MARS *      MOSUNNY   73  37  27 NW16G31   30.12S
ORANGE CITY *  MOSUNNY   72  41  33 NW30G36   30.11S
SHELDON *      MOSUNNY   72  37  28 NW22G32   30.08S
SIOUX CITY     PTSUNNY   77  37  23 NW22G37   30.10F
SPENCER        CLOUDY    71  39  31 W23G31    30.08S
STORM LAKE *     N/A     72  37  28 W21G32    30.11S
$$

IAZ055>058-069>071-079>083-090>094-242000-
   SOUTHWEST IOWA

CITY           SKY/WX    TMP DP  RH WIND       PRES   REMARKS
ATLANTIC *     MOSUNNY   73  41  31 W10G17    30.15F
AUDUBON *      MOSUNNY   75  39  27 W8        30.16S
CLARINDA *     MOSUNNY   75  46  35 W13       30.21F
COUNCIL BLFS * MOSUNNY   75  37  25 NW10G17   30.17F
CRESTON *      MOSUNNY   75  39  27 W20G28    30.19F
HARLAN  *      MOSUNNY   75  37  25 W20G31    30.18F
LAMONI         MOSUNNY   75  44  33 W9G23     30.18F
RED OAK *      MOSUNNY   75  45  33 W13       30.18F
SHENANDOAH *   MOSUNNY   75  45  33 W7G17     30.19F
$$

IAZ047>049-059>061-072>074-084-242000-
   CENTRAL IOWA

CITY           SKY/WX    TMP DP  RH WIND       PRES   REMARKS
AMES           PTSUNNY   74  42  31 W14G24    30.11F
ANKENY *       MOSUNNY   73  41  31 NW14G21   30.14F
BOONE *        PTSUNNY   73  41  31 W13G23    30.11F
CHARITON *     MOSUNNY   75  39  27 NW14      30.16S
DES MOINES     PTSUNNY   75  41  29 W14       30.14S
GRINNELL*      MOSUNNY   71  39  30 W10G23    30.14F
KNOXVILLE *    SUNNY     72  41  33 NW14G21   30.14S
MARSHALLTOWN   PTSUNNY   70  41  34 W14G21    30.10F
NEWTON *       MOSUNNY   72  43  35 W12G21    30.14F
PELLA *        SUNNY     73  40  30 W9G18     30.16S
PERRY *        PTSUNNY   73  38  28 W18G24    30.14S
$$

IAZ004>006-015-016-023>025-035-036-242000-
   NORTH CENTRAL IOWA

CITY           SKY/WX    TMP DP  RH WIND       PRES   REMARKS
ALGONA *       MOSUNNY   72  39  30 W25G31    30.06F
CLARION *        N/A     70  39  32 W17G31    30.08F
ESTHERVILLE    CLOUDY    68  41  37 W23G37    30.05F
FORT DODGE *   CLOUDY    72  43  35 W18G31    30.10F
MASON CITY     PTSUNNY   68  39  34 W15G28    30.07F
FOREST CITY *  PTSUNNY   70  30  23 W9G18     30.04F
WEBSTER CITY * MOSUNNY   72  39  30 W16G22    30.08F
IOWA FALLS *   PTSUNNY   71  41  34 W16G23    30.11F
$$

IAZ007>011-017>019-026>030-037>042-050>054-066-242000-
   NORTHEAST IOWA

CITY           SKY/WX    TMP DP  RH WIND       PRES   REMARKS
CEDAR RAPIDS   MOSUNNY   71  45  39 NW17G35   30.10F
CHARLES CITY * MOSUNNY   68  43  40 W16G26    30.08F
CLINTON *      SUNNY     71  46  40 NW20G32   30.08S
DECORAH *      PTSUNNY   66  43  42 VRB7G23   30.05S
DUBUQUE        SUNNY     69  42  37 NW22G30   30.08R
MONTICELLO *   MOSUNNY   70  45  40 W18G25    30.09S
OELWEIN *      SUNNY     68  45  42 NW16G29   30.09F
WATERLOO       MOSUNNY   70  39  32 W16       30.08F
$$

IAZ064-065-067-068-078-242000-
   EAST CENTRAL IOWA

CITY           SKY/WX    TMP DP  RH WIND       PRES   REMARKS
DAVENPORT      SUNNY     71  44  37 W16G30    30.10S
IOWA CITY      SUNNY     74  42  31 NW14G23   30.12F
MT. PLEASANT * SUNNY     73  38  28 W16G23    30.13F
MUSCATINE *    SUNNY     75  41  29 NW22      30.12S
QUAD CITIES    SUNNY     74  43  32 NW18G31   30.08F
$$

IAZ062-063-075>077-085>089-095>099-242000-
   SOUTHEAST IOWA

CITY           SKY/WX    TMP DP  RH WIND       PRES   REMARKS
BURLINGTON     SUNNY     75  46  35 NW12G17   30.11F
FAIRFIELD *    SUNNY     73  37  27 NW15G22   30.14S
FORT MADISON * SUNNY     73  43  33 NW16G25   30.13F
KEOKUK *       SUNNY     73  43  33 NW14G22   30.13S
OSKALOOSA *      N/A     74  41  30 W14G23    30.15S
CENTERVILLE *    N/A     73  43  33 NW12G21   30.18F
OTTUMWA        SUNNY     75  40  28 W16G26    30.15S
WASHINGTON *   SUNNY     73  39  29 NW16G26   30.14S
$$

ABBREVIATIONS USED IN REMARKS
   TC - TEMPERATURES IN CELSIUS
  WCI - WIND CHILL INDEX
   HX - HEAT INDEX
  VSB - VISIBILITY
$$





USA.gov is the U.S. government's official web portal to all federal, state and local government web resources and services.